Weather History for KLXT - February, 2013

Change the Weather History Date:

Thursday, February 7, 2013

  Actual Average (KMKC) Record (KMKC)
Temperature  
Mean Temperature 42 °F -  
Max Temperature 50 °F 41 °F 72 °F (2009)
Min Temperature 32 °F 24 °F 5 °F (2003)
Degree Days  
Heating Degree Days 24    
Moisture  
Dew Point 39 °F    
Average Humidity 85    
Maximum Humidity 100    
Minimum Humidity 58    
Precipitation  
Precipitation 0.76 in - - ()
Sea Level Pressure  
Sea Level Pressure 29.96 in    
Wind  
Wind Speed 8 mph (West)    
Max Wind Speed 18 mph    
Max Gust Speed 24 mph    
Visibility 6 miles    
Events Rain , Thunderstorm    
Averages and records for this station are not official NWS values.
T = Trace of Precipitation, MM = Missing Value Source: NWS Daily Summary

Daily Weather History Graph

Daily Weather History Graph

Search for Another Location

Airport or City:

Trip Planner

Search our weather history database for the weather conditions in past years. The results will help you decide how hot, cold, wet, or windy it might be!

Date:

Astronomy

Feb. 07, 2013 Rise Set
Actual Time 7:17 AM CST 5:46 PM CST
Civil Twilight 6:49 AM CST 6:13 PM CST
Nautical Twilight 6:18 AM CST 6:45 PM CST
Astronomical Twilight 5:47 AM CST 7:16 PM CST
Moon 4:57 AM CST 3:12 PM CST
Length of Visible Light 11h 23m
Length of Day
10h 28m
Waning Crescent, 9% of the Moon is Illuminated
Feb 7
Waning Crescent
Feb 10
New
Feb 17
First Quarter
Feb 25
Full
Mar 4
Last Quarter

Hourly Weather History & Observations

Time (CST) Temp. Windchill Dew Point Humidity Pressure Visibility Wind Dir Wind Speed Gust Speed Precip Events Conditions
12:20 AM 50.0 °F - 35.6 °F 58% 29.93 in 10.0 mi South 6.9 mph - 0.00 in Rain , Thunderstorm Light Thunderstorms and Rain
12:53 AM 50.0 °F - 37.0 °F 61% 29.92 in 10.0 mi South 11.5 mph - 0.00 in Thunderstorm Overcast
1:00 AM 48.2 °F - 37.4 °F 66% 29.92 in 10.0 mi South 10.4 mph - N/A   Overcast
1:53 AM 46.9 °F - 39.0 °F 74% 29.90 in 10.0 mi South 6.9 mph - 0.00 in   Overcast
2:53 AM 46.0 °F 41.9 °F 37.0 °F 71% 29.89 in 10.0 mi South 8.1 mph - N/A   Clear
3:10 AM 46.4 °F 41.9 °F 37.4 °F 71% 29.89 in 10.0 mi South 9.2 mph - N/A   Mostly Cloudy
3:53 AM 46.9 °F - 37.9 °F 71% 29.88 in 10.0 mi South 8.1 mph - N/A   Overcast
4:53 AM 46.0 °F 43.1 °F 39.9 °F 79% 29.88 in 7.0 mi South 5.8 mph - 0.05 in   Overcast
5:16 AM 44.6 °F 40.7 °F 41.0 °F 87% 29.87 in 6.0 mi SSE 6.9 mph - 0.05 in Rain Rain
5:53 AM 45.0 °F 41.8 °F 43.0 °F 93% 29.88 in 4.0 mi SSW 5.8 mph - 0.15 in Rain Rain
6:10 AM 44.6 °F 43.1 °F 42.8 °F 93% 29.88 in 3.0 mi WSW 3.5 mph - 0.07 in Rain Heavy Rain
6:19 AM 44.6 °F - 42.8 °F 93% 29.88 in 2.5 mi Calm Calm - 0.12 in Rain Rain
6:26 AM 44.6 °F - 42.8 °F 93% 29.88 in 4.0 mi Calm Calm - 0.14 in Rain Rain
6:44 AM 44.6 °F 43.1 °F 42.8 °F 93% 29.88 in 2.5 mi South 3.5 mph - 0.22 in Rain Heavy Rain
6:53 AM 45.0 °F - 43.0 °F 93% 29.89 in 2.5 mi Calm Calm - 0.27 in Rain Rain
7:06 AM 44.6 °F 42.2 °F 42.8 °F 93% 29.88 in 3.0 mi South 4.6 mph - 0.06 in Rain Rain
7:34 AM 44.6 °F 43.1 °F 42.8 °F 93% 29.88 in 4.0 mi SSE 3.5 mph - 0.15 in Rain Light Rain
7:53 AM 45.0 °F 43.5 °F 43.0 °F 93% 29.89 in 4.0 mi South 3.5 mph - 0.15 in   Overcast
8:02 AM 44.6 °F 42.2 °F 42.8 °F 93% 29.89 in 4.0 mi South 4.6 mph - N/A   Overcast
8:14 AM 44.6 °F 42.2 °F 42.8 °F 93% 29.89 in 4.0 mi SSW 4.6 mph - N/A   Overcast
8:35 AM 44.6 °F 41.4 °F 42.8 °F 93% 29.91 in 2.5 mi SW 5.8 mph - 0.02 in Rain Light Rain
8:53 AM 45.0 °F 42.6 °F 43.0 °F 93% 29.92 in 2.0 mi SW 4.6 mph - 0.03 in Rain Light Rain
9:02 AM 44.6 °F 42.2 °F 42.8 °F 93% 29.92 in 1.5 mi SW 4.6 mph - 0.03 in Rain Rain
9:53 AM 46.0 °F 44.8 °F 45.0 °F 96% 29.92 in 1.5 mi SW 3.5 mph - 0.06 in Rain Light Rain
10:06 AM 46.4 °F 44.3 °F 44.6 °F 93% 29.92 in 1.8 mi West 4.6 mph - 0.01 in Rain Light Rain
10:21 AM 46.4 °F 44.3 °F 46.4 °F 100% 29.92 in 2.5 mi West 4.6 mph - 0.01 in Rain Light Rain
10:26 AM 46.4 °F 43.5 °F 46.4 °F 100% 29.92 in 3.0 mi West 5.8 mph - 0.01 in Rain Light Rain
10:39 AM 48.2 °F - 46.4 °F 93% 29.92 in 2.5 mi West 6.9 mph - 0.02 in Rain Light Rain
10:48 AM 48.2 °F - 46.4 °F 93% 29.93 in 3.0 mi West 6.9 mph - 0.03 in Rain Light Rain
10:53 AM 48.0 °F - 46.0 °F 93% 29.94 in 3.0 mi West 6.9 mph - 0.03 in Rain Light Rain
11:53 AM 46.0 °F 40.2 °F 43.0 °F 89% 29.94 in 3.0 mi WNW 12.7 mph - 0.02 in   Overcast
12:03 PM 44.6 °F 38.8 °F 42.8 °F 93% 29.94 in 2.5 mi WNW 11.5 mph - N/A   Overcast
12:43 PM 44.6 °F 39.7 °F 42.8 °F 93% 29.95 in 3.0 mi NW 9.2 mph - N/A   Overcast
12:53 PM 44.1 °F 38.6 °F 42.1 °F 93% 29.96 in 3.0 mi WNW 10.4 mph - N/A   Overcast
1:39 PM 46.4 °F 41.5 °F 42.8 °F 87% 29.94 in 6.0 mi NNW 10.4 mph - N/A   Overcast
1:53 PM 46.0 °F 40.2 °F 42.1 °F 86% 29.96 in 7.0 mi NNW 12.7 mph - N/A   Overcast
2:53 PM 46.0 °F 39.3 °F 41.0 °F 83% 29.97 in 9.0 mi NNW 16.1 mph 21.9 mph N/A   Overcast
3:53 PM 45.0 °F 37.4 °F 39.0 °F 80% 29.99 in 10.0 mi NNW 18.4 mph - N/A   Overcast
4:53 PM 44.1 °F 37.4 °F 37.0 °F 76% 30.02 in 8.0 mi NNW 13.8 mph 23.0 mph N/A   Mostly Cloudy
5:16 PM 42.8 °F 35.4 °F 35.6 °F 76% 30.03 in 8.0 mi North 15.0 mph - N/A   Scattered Clouds
5:51 PM 41.0 °F 33.9 °F 35.6 °F 81% 30.05 in 8.0 mi North 12.7 mph - N/A   Mostly Cloudy
5:53 PM 41.0 °F 32.5 °F 35.1 °F 79% 30.06 in 8.0 mi North 17.3 mph 20.7 mph N/A   Mostly Cloudy
6:13 PM 39.2 °F 30.8 °F 33.8 °F 81% 30.06 in 9.0 mi North 15.0 mph 21.9 mph N/A   Scattered Clouds
6:44 PM 37.4 °F 29.3 °F 32.0 °F 81% 30.08 in 8.0 mi NNW 12.7 mph 21.9 mph N/A   Mostly Cloudy
6:53 PM 37.9 °F 30.5 °F 32.0 °F 79% 30.10 in 8.0 mi North 11.5 mph - N/A   Mostly Cloudy
7:53 PM 37.9 °F 30.9 °F 32.0 °F 79% 30.12 in 8.0 mi NNW 10.4 mph 21.9 mph N/A   Overcast
8:11 PM 37.4 °F 27.8 °F 30.2 °F 75% 30.11 in 8.0 mi NNW 17.3 mph 23.0 mph N/A   Overcast
8:53 PM 36.0 °F 28.0 °F 30.0 °F 79% 30.16 in 8.0 mi North 11.5 mph - N/A   Overcast
9:53 PM 34.0 °F 23.0 °F 28.0 °F 79% 30.18 in 10.0 mi North 18.4 mph 24.2 mph N/A   Overcast
10:53 PM 33.1 °F 23.4 °F 27.0 °F 78% 30.20 in 10.0 mi North 13.8 mph - N/A   Overcast
11:53 PM 32.0 °F 22.1 °F 26.1 °F 79% 30.21 in 10.0 mi North 13.8 mph - N/A   Overcast